Regional Weather Roundup
Issued by NWS

Home | Current Version | Previous Version | Text Only | Print | Product List | Glossary Off
Versions: 1 2 3 4 5 6 7 8 9 10 11 12 13 14 15 16 17 18 19 20 21 22 23 24 25 26 27 28 29 30 31 32 33 34 35 36 37 38 39 40 41 42 43 44 45 46 47 48 49 50

000
ASUS43 KLMK 291710
RWRKY
KENTUCKY REGIONAL WEATHER ROUNDUP
NATIONAL WEATHER SERVICE LOUISVILLE KY
1200 PM EST THU JAN 29 2015

NOTE "FAIR" INDICATES FEW OR NO CLOUDS BELOW 12,000 FEET
WITH NO SIGNIFICANT WEATHER AND/OR OBSTRUCTIONS TO VISIBILITY.

KYZ001>023-026-027-061>063-070>075-291800-
WESTERN AND SOUTH CENTRAL KENTUCKY

CITY           SKY/WX    TMP DP  RH WIND       PRES   REMARKS
PADUCAH        CLOUDY    51  37  58 NW16G30   30.08R
HENDERSON      CLOUDY    46  36  66 NW16G24   30.05R
OWENSBORO      CLOUDY    50  38  63 NW24G32   30.03R
HOPKINSVILLE   PTSUNNY   61  42  50 W16       30.02R
BOWLING GREEN  CLOUDY    59  39  47 SW17G24   30.00R
GLASGOW        CLOUDY    56  37  49 SW13G24   29.98F
$$

KYZ024-025-028>034-038-045-046-053-291800-
NORTH CENTRAL KENTUCKY

CITY           SKY/WX    TMP DP  RH WIND       PRES   REMARKS
LOUISVILLE/SDF CLOUDY    55  39  54 W25G35    29.90S
LOUISVILLE/LOU CLOUDY    54  38  54 SW10G22   29.90S
FORT KNOX      CLOUDY    54  40  59 SW16G25   29.92R
$$

KYZ035>037-039>044-047>052-055>060-089>105-291800-
NORTHEAST KENTUCKY

CITY           SKY/WX    TMP DP  RH WIND       PRES   REMARKS
LEXINGTON      CLOUDY    51  37  58 SW24G36   29.90F
COVINGTON      CLOUDY    49  36  61 SW14G23   29.84S
FRANKFORT      CLOUDY    52  37  56 SW22G32   29.89F
$$

KYZ054-064>069-076>088-106>120-291800-
SOUTHEAST KENTUCKY

CITY           SKY/WX    TMP DP  RH WIND       PRES   REMARKS
JACKSON        CLOUDY    47  36  65 S12G20    29.96F
LONDON         SUNNY     52  35  52 SW16G25   30.00F
SOMERSET       MOSUNNY   52  34  50 S10G17    30.01F
MIDDLESBORO    MOSUNNY   45  32  60 S22G31    30.08F
MONTICELLO     SUNNY     57  37  47 SW18G33   30.03F
$$




USA.gov is the U.S. government's official web portal to all federal, state and local government web resources and services.